Chatham, MA

8:12 PM EST on January 20, 2018 (GMT -0500)
Chatham Municipal

Weather History for KCQX - April, 2013

Change the Weather History Date:

Monday, April 8, 2013

  Actual Average Record
Temperature  
Mean Temperature 52 °F -  
Max Temperature 61 °F 47 °F 61 °F (2013)
Min Temperature 44 °F 35 °F 24 °F (1982)
Degree Days  
Heating Degree Days 13    
Growing Degree Days 2 (Base 50)    
Moisture  
Dew Point 40 °F    
Average Humidity 70    
Maximum Humidity 93    
Minimum Humidity 46    
Precipitation  
Precipitation 0.00 in - - ()
Sea Level Pressure  
Sea Level Pressure 30.07 in    
Wind  
Wind Speed 9 mph (South)    
Max Wind Speed 15 mph    
Max Gust Speed 26 mph    
Visibility 10 miles    
Events      
Averages and records for this station are not official NWS values.
T = Trace of Precipitation, MM = Missing Value Source: NWS Daily Summary

Daily Weather History Graph

Daily Weather History Graph

Search for Another Location

Airport or City:

Trip Planner

Search our weather history database for the weather conditions in past years. The results will help you decide how hot, cold, wet, or windy it might be!

Date:

Astronomy

Apr. 08, 2013 Rise Set
Actual Time 6:10 AM EDT 7:13 PM EDT
Civil Twilight 5:42 AM EDT 7:41 PM EDT
Nautical Twilight 5:08 AM EDT 8:15 PM EDT
Astronomical Twilight 4:33 AM EDT 8:51 PM EDT
Moon 5:00 AM EDT (4/8) 5:43 PM EDT (4/8)
Length of Visible Light 13h 59m
Length of Day
13h 02m
Waning Crescent, 3% of the Moon is Illuminated
Apr 8
Waning Crescent
Apr 10
New
Apr 18
First Quarter
Apr 25
Full
May 2
Last Quarter

Hourly Weather History & Observations

Time (EDT) Temp. Windchill Dew Point Humidity Pressure Visibility Wind Dir Wind Speed Gust Speed Precip Events Conditions
12:52 AM 48.0 °F - 43.0 °F 83% 30.07 in 10.0 mi SSW 15.0 mph 26.5 mph N/A   Clear
1:52 AM 46.9 °F - 43.0 °F 86% 30.06 in 10.0 mi SSW 10.4 mph 20.7 mph N/A   Clear
2:52 AM 46.9 °F - 44.1 °F 90% 30.04 in 10.0 mi SW 10.4 mph 18.4 mph N/A   Clear
3:52 AM 46.9 °F - 44.1 °F 90% 30.02 in 10.0 mi SW 10.4 mph 19.6 mph N/A   Clear
4:52 AM 46.9 °F - 44.1 °F 90% 30.01 in - SW 9.2 mph 17.3 mph N/A   Mostly Cloudy
5:52 AM 46.0 °F 41.0 °F 44.1 °F 93% 30.00 in - SW 10.4 mph 18.4 mph N/A   Clear
6:52 AM 46.9 °F - 44.1 °F 90% 30.01 in 7.0 mi SW 5.8 mph - N/A   Mostly Cloudy
7:52 AM 46.9 °F - 44.1 °F 90% 30.04 in 8.0 mi WSW 5.8 mph - N/A   Mostly Cloudy
8:52 AM 52.0 °F - 46.0 °F 80% 30.04 in - West 3.5 mph - N/A   Partly Cloudy
9:52 AM 57.0 °F - 42.1 °F 57% 30.04 in 10.0 mi Variable 3.5 mph - N/A   Clear
10:52 AM 60.1 °F - 39.9 °F 47% 30.05 in 10.0 mi Variable 4.6 mph - N/A   Clear
11:52 AM 60.1 °F - 39.0 °F 46% 30.06 in 10.0 mi Variable 6.9 mph - N/A   Clear
12:52 PM 59.0 °F - 39.0 °F 48% 30.06 in 10.0 mi WNW 5.8 mph - N/A   Clear
1:52 PM 57.9 °F - 39.0 °F 49% 30.06 in 10.0 mi ENE 6.9 mph - N/A   Clear
2:52 PM 57.9 °F - 39.0 °F 49% 30.07 in 10.0 mi ENE 8.1 mph - N/A   Clear
3:52 PM 55.9 °F - 36.0 °F 47% 30.07 in 10.0 mi ENE 12.7 mph - N/A   Clear
4:52 PM 54.0 °F - 37.0 °F 53% 30.08 in 10.0 mi ENE 9.2 mph - N/A   Clear
5:52 PM 52.0 °F - 37.0 °F 57% 30.10 in 10.0 mi ENE 6.9 mph - N/A   Clear
6:52 PM 50.0 °F - 36.0 °F 59% 30.11 in 10.0 mi East 4.6 mph - N/A   Clear
7:52 PM 48.0 °F - 36.0 °F 63% 30.12 in 10.0 mi East 4.6 mph - N/A   Clear
8:52 PM 45.0 °F - 37.0 °F 74% 30.14 in 10.0 mi Calm Calm - N/A   Clear
9:52 PM 44.1 °F 41.5 °F 39.0 °F 82% 30.14 in 10.0 mi South 4.6 mph - N/A   Clear
10:52 PM 44.1 °F - 37.0 °F 76% 30.15 in 10.0 mi Calm Calm - N/A   Clear
11:52 PM 46.0 °F 42.5 °F 37.0 °F 71% 30.14 in 10.0 mi SSE 6.9 mph - N/A   Clear